To NAV CANADA Home Page Login to a new session Search on AWWS site Feedback and Comments Disclaimer Vers la page française équivalente Tips FAQ What's new on the site To the Forecasts and Observations / NOTAM section To "File a Flight Plan" website Publications and other links Update of the User's profile FIC Telephone Numbers My Weather Data Folder Route Weather Data Regional Weather Data Local Weather Data To the Forecasts and Observations / NOTAM section
Request Generated 10/28/2016 at 04:25:24 UTC . Weather information available at that time is displayed.



LWIS CYXN 280400Z AUTO 36014KT M06/M07 A2996=
LWIS CYXN 280300Z AUTO 01014KT M04/M06 A2995=
LWIS CYXN 280200Z AUTO 01015KT M03/M05 A2995=

CYXN - No TAF is issued for this station

Your time UTC time
Weather data provided by Environment Canada and NAV CANADA